{"data":{"norad_id":52672,"intl_designator":"2022-053S","name":"STARLINK-4073","alt_names":[],"object_type":"PAYLOAD","status":"ACTIVE","operator":null,"country":"US","launch_date":"2022-05-18","launch_site_code":"AFETR","launch_vehicle":null,"mission":null,"orbit_class":"UNKNOWN","rcs_meters":null,"size_class":null,"mass_kg":null,"dimensions":null,"purposes":["comms"],"wikipedia_slug":null,"has_3d_model":false,"image_url":null,"decayed_at":null,"tle_current":{"epoch":"2026-05-25T02:17:28.497408Z","epoch_age_seconds":62866,"freshness":"FRESH","line1":"1 52672U 22053S   26145.09546872  .00000042  00000+0  20706-4 0  9997","line2":"2 52672  53.2129 171.1213 0001402  81.4580 278.6571 15.08835634222572","mean_motion":15.08835634,"eccentricity":0.0001402,"inclination_deg":53.2129,"raan_deg":171.1213,"arg_perigee_deg":81.458,"mean_anomaly_deg":278.6571,"bstar":2.0706e-5,"rev_number":22257,"period_min":95.437830837974,"perigee_km":538.78684541012,"apogee_km":540.72662281316,"semimajor_km":6917.8937341116,"source":"CELESTRAK","updated_at":"2026-05-25T13:38:17.232632Z"}}}